Regional Weather Roundup
Issued by NWS

Home | Current Version | Previous Version | Text Only | Print | Product List | Glossary Off
Versions: 1 2 3 4 5 6 7 8 9 10 11 12 13 14 15 16 17 18 19 20 21 22 23 24 25 26 27 28 29 30 31 32 33 34 35 36 37 38 39 40 41 42 43 44 45 46 47 48 49 50

000
ASUS43 KIND 260409
RWRIN

WEATHER ROUNDUP FOR INDIANA
NATIONAL WEATHER SERVICE INDIANAPOLIS IN
1200 AM EDT WED JUL 26 2017

NOTE: "FAIR" INDICATES FEW OR NO CLOUDS BELOW 12,000 FEET WITH NO
SIGNIFICANT WEATHER AND/OR OBSTRUCTIONS TO VISIBILITY.

* - STATION DOES NOT REPORT WEATHER SUCH AS PRECIPITATION OR FOG.

+ - STATION NOT QUALITY CONTROLLED BY THE NATIONAL WEATHER SERVICE.
    USE DATA WITH CAUTION...ESPECIALLY DEWPOINT AND RELATIVE
    HUMIDITY OBSERVATIONS.

INZ001>003-010>013-019-020-260500-
NORTHWEST INDIANA

CITY           SKY/WX    TMP DP  RH WIND       PRES   REMARKS
GARY /AIRPORT/ CLEAR     62  59  88 CALM      30.16S
KNOX *+        CLEAR     61  59  94 CALM      30.16F
LA PORTE +     CLEAR     60  59  94 CALM      30.17F
MICHIGAN CITY+ CLEAR     59  59 100 CALM      30.18S
MONTICELLO +   CLEAR     66  62  86 CALM      30.17R
RENSSELAER +   CLEAR     63  59  88 E3        30.16F
VALPARAISO     CLEAR     69  59  70 SE6       30.17F

$$

LMZ046-743>745-260500-
SOUTHERN LAKE MICHIGAN

STATION/POSITION TIME  TEMP    WIND        PRES    WAVE
                       AIR SEA DIR/SP/G            HT
                 (UTC) (F)     (DEG/KT/KT) (MB)    (FT)
BURNS HARBOR     0402   72     180/  6/ 11 1022.0
MICHIGAN CITY    0340   70     110/  3/  3   N/A
5NW MICH CITY    0400   72 74  170/  4/  6   N/A     0

$$

INZ004-005-014>016-021>024-260500-
NORTH CENTRAL INDIANA

CITY           SKY/WX    TMP DP  RH WIND       PRES   REMARKS
GOSHEN         CLEAR     63  56  78 E5        30.19S
LOGANSPORT +   CLEAR     64  61  88 NE3       30.19R
PERU/GRISSOM   CLEAR     64  61  90 NE5       30.18R
ROCHESTER +    CLEAR     68  63  83 SE6       30.17F
SOUTH BEND     CLEAR     67  58  72 SE5       30.18S
WARSAW +       CLEAR     61  59  94 CALM      30.19F

$$

INZ006>009-017-018-025>027-260500-
NORTHEAST INDIANA

CITY           SKY/WX    TMP DP  RH WIND       PRES   REMARKS
AUBURN +       CLEAR     64  57  77 CALM      30.20S
FORT WAYNE     PTCLDY    65  59  81 SE3       30.19R
HUNTINGTON +   CLEAR     64  60  87 CALM      30.19S
KENDALLVILLE + CLEAR     64  58  81 E3        30.21R

$$

INZ028-029-035-036-043>045-051>053-260500-
WEST CENTRAL INDIANA

CITY           SKY/WX    TMP DP  RH WIND       PRES   REMARKS
GREENCASTLE +  CLEAR     64  59  82 CALM      30.18R
LAFAYETTE      CLEAR     66  61  84 E8        30.16R
TERRE HAUTE    CLEAR     67  62  84 CALM      30.15R

$$

INZ030>032-037>040-046>048-054>057-064-065-260500-
CENTRAL INDIANA

CITY           SKY/WX    TMP DP  RH WIND       PRES   REMARKS
CP ATTERBURY + CLEAR     61  59  94 CALM      30.17S
FRANKFORT +    CLEAR     66  63  91 E5        30.19R
INDIANAPOLIS   CLEAR     70  61  73 E8        30.16R
-EAGLE CREEK   CLEAR     70  60  70 SE5       30.16R
KOKOMO +       CLEAR     64  60  87 NE3       30.20R
MARION +       CLEAR     64  59  82 E3        30.19R
MT COMFORT *+  CLEAR     64  61  88 E7        30.17F
SHELBYVILLE    CLEAR     65  60  84 E7        30.16S
ZIONSVILLE +   CLEAR     64  60  88 CALM      30.18R

$$

INZ033-034-041-042-049-050-058-059-260500-
EAST CENTRAL INDIANA

CITY           SKY/WX    TMP DP  RH WIND       PRES   REMARKS
MUNCIE         CLEAR     64  60  87 SE3       30.18S
RICHMOND +     CLEAR     59  59 100 SE7       30.20F

$$

INZ060-061-067>069-081>083-085>088-260500-
SOUTHWEST INDIANA

CITY           SKY/WX    TMP DP  RH WIND       PRES   REMARKS
EVANSVILLE     PTCLDY    76  69  79 E5        30.12R
HUNTINGBURG *+ CLEAR     73  68  84 CALM      30.14R

$$

INZ062-063-066-070>080-084-089>092-260500-
SOUTH CENTRAL AND SOUTHEAST INDIANA

CITY           SKY/WX    TMP DP  RH WIND       PRES   REMARKS
BEDFORD +      CLEAR     68  61  77 CALM      30.15R
BLOOMINGTON    CLEAR     63  60  90 CALM      30.16R
MADISON *+     CLEAR     68  61  77 E5        30.20R
NORTH VERNON + PTCLDY    64  61  88 E7        30.17R
SEYMOUR +      CLEAR     68  63  83 E5        30.15R

$$





USA.gov is the U.S. government's official web portal to all federal, state and local government web resources and services.